テナグラ彗星

415P/Tenagra (2012)

English version
Home page
Updated on February 17, 2021

---------------------------------------------------------------------

・ プロフィール

符号 415P/2013 EW90
発見日 2013年3月3日
発見光度 19.0等
発見者 M. Schwartz and P. R. Holvorcem (Tenagra Observatories near Nogales, AZ, U.S.A.)

・ 写真集

・ 軌道要素

Epoch 2012 Sept. 30.0 TT = JDT 2456200.5                                        
T 2012 Oct. 11.65276 TT                                 Rudenko                 
q   3.3002778            (2000.0)            P               Q                  
n   0.11850169     Peri.  345.99757     -0.84475148     -0.50498507             
a   4.1050616      Node   160.36252     +0.52758546     -0.84133654             
e   0.1960467      Incl.   31.81311     +0.08971356     +0.19272496             
P   8.32                                                                        
From 67 observations 2013 Feb. 16-2020 Dec. 25, mean residual 0".7.             

・ 光度変化

        m1 = 12.0 + 5 logΔ + 10.0 log r

---------------------------------------------------------------------

軌道要素はM.P.E.C. 2021-B17に掲載されたものです。
光度グラフはComet for Windowsで作成したものです。

---------------------------------------------------------------------

Copyright(C) Seiichi Yoshida (comet@aerith.net). All rights reserved.